Погода в Тринидаде

Куба     21°47′58″N   79°59′02″W
темп.,
°C
ветер,
м/с
пор.,
м/с
влажн.,
%
обл.,
%
осадки,
мм/ч
давл.,
гПа
погр.,
м
23 апреля, пт
пт2323:00+26св366960 0.3 1017303
02:00+25св357331 0.3 1016315
05:00+24св35815 0.0 1015288
08:00+24св46806 0.0 1017352
11:00+28вюв56606 0.0 10171056
14:00+26ююв557142 0.3 1016343
17:00+27сз2364100 0.7 1014493
20:00+27ссв71166100 0.8 1015498
24 апреля, сб
сб2423:00+25св5107443 0.0 1016539
02:00+23всв610815 0.0 1015502
05:00+23всв598596 0.0 1015416
08:00+23всв5108479 0.0 1016560
11:00+27юв786658 0.0 10171084
14:00+27юв676819 0.0 1015714
17:00+27ю4470100 0.0 1014589
20:00+26юз348031 0.0 1014310
25 апреля, вс
вс2523:00+25ссз1181100 0.0 1016202
02:00+25ссв118515 0.1 101574
05:00+24всв118793 0.0 1013110
08:00+25св2183100 0.0 1015210
11:00+28ююв336723 0.0 1016727
14:00+28ю53664 0.0 1015699
17:00+28юз55650 0.0 1014645
20:00+26зюз447019 0.0 1014230
26 апреля, пн
пн2623:00+26сз22724 0.0 1016155
02:00+25св22730 0.0 1014109
05:00+25св33780 0.0 1014144
08:00+26всв23710 0.0 1015194
11:00+29юв44580 0.0 1016880
14:00+29ю64612 0.0 1014859
17:00+28юз33654 0.0 1013491
20:00+28с35600 0.0 1014176
27 апреля, вт
вт2723:00+25ссв46690 0.0 1016273
02:00+24св58831 0.0 1015397
05:00+23св48871 0.0 1015384
08:00+24св59821 0.0 1016622
11:00+29в68550 0.0 1016946
14:00+28ююв876017 0.0 1014838
17:00+27з226167 0.0 1013300
20:00+28св48570 0.0 1014347